Other Public Products
Issued by NWS Grand Forks, ND

Home | Current Version | Previous Version | Graphics & Text | Print | Product List | Glossary On
Versions: 1 2 3 4 5 6 7 8 9 10 11 12 13 14 15 16 17 18 19 20 21 22 23 24 25 26 27 28 29 30 31 32 33 34 35 36 37 38 39 40 41 42 43 44 45 46 47 48 49 50
543
FPUS83 KFGF 200010
OPUFGF
PRAIRIE TO PINES WEATHER ROUNDUP
NATIONAL WEATHER SERVICE EASTERN NORTH DAKOTA/GRAND FORKS ND
600 PM CST MON FEB 19 2018

 **SATELLITE DATA USED TO AUGMENT SKY COVER AT AUTOMATED STATIONS**
 *****  WEATHER ACROSS EASTERN NORTH DAKOTA  *****

CITY           SKY/WX    TMP DP  RH WIND       PRES   REMARKS
GRAND FORKS    CLOUDY     6  -4  63 N13       30.23S WCI -10
6HR MIN TEMP:   4; 6HR MAX TEMP:   6;

GRND FORKS AFB FAIR       5  -6  60 N15       30.23R WCI -13
GRND FORKS NWS   N/A      5  -3  71 N9        30.20S WCI -10
BUXTON           N/A      5   0  77 N14         N/A  WCI -12
DEVILS LAKE    CLOUDY     4  -7  60 NE6       30.21  WCI  -7
6HR MIN TEMP:   1; 6HR MAX TEMP:   4;

FARGO          CLOUDY     7  -1  70 N22       30.15R WCI -14
6HR MIN TEMP:   7; 6HR MAX TEMP:  10;

WAHPETON ARPT  CLOUDY    10   5  79 N18G25    30.07S WCI  -8
$$

 *****  WEATHER ACROSS CENTRAL AND WESTERN NORTH DAKOTA  *****

CITY           SKY/WX    TMP DP  RH WIND       PRES   REMARKS
JAMESTOWN      LGT SNOW   3  -2  78 N18       30.13R VSB 3/4 WCI -17
6HR MIN TEMP:   4; 6HR MAX TEMP:   7; 6HR PCP: TRACE;

BISMARCK       LGT SNOW   4  -1  80 NE10      30.17S WCI -11
6HR MIN TEMP:   4; 6HR MAX TEMP:   7; 6HR PCP:  0.02;

MINOT          CLOUDY     8  -6  52 W3        30.17R
6HR MIN TEMP:   5; 6HR MAX TEMP:   9;

MINOT AFB        N/A      6  -3  65 W5        30.16S WCI  -2
6HR MIN TEMP:   2; 6HR MAX TEMP:   8;

GARRISON         N/A      4  -4  69 VRB3      30.15R
6HR MIN TEMP:   3; 6HR MAX TEMP:   7;

WILLISTON      CLOUDY     3  -3  76 W3        30.15F
6HR MIN TEMP:  -3; 6HR MAX TEMP:   6;

DICKINSON      LGT SNOW   2  -3  80 NE7       30.05F VSB 1   WCI -11
6HR MIN TEMP:   2; 6HR MAX TEMP:   5; 6HR PCP: TRACE;

HETTINGER      LGT SNOW   1  -5  75 NE14      30.02F WCI -17
6HR MIN TEMP:   1; 6HR MAX TEMP:   3; 6HR PCP: TRACE;

$$

 *****  OTHER OBSERVATIONS NORTHEAST NORTH DAKOTA  *****

CITY           SKY/WX    TMP DP  RH WIND       PRES   REMARKS
WALHALLA       FAIR       5  -8  56 N8        30.25R WCI  -8
LANGDON        FAIR       5  -8  56 N6        30.18R WCI  -6
CAVALIER         N/A      5  -8  56 N8        30.25S WCI  -8
GRAFTON        FAIR       5  -6  61 N10       30.27R WCI -10
CANDO          CLOUDY     5 -11  47 N5        30.22R WCI  -4
FORT TOTTEN      N/A      4  -9  54 N2        29.95S
ROLLA          CLOUDY     3  -8  60 SW8       30.16R WCI -10
RUGBY          FAIR       3  -6  66 W5        30.19R WCI  -6
 ***** THE ABOVE OBSERVATIONS ARE NON NWS ARE NOT QUALITY
        CONTROLLED AND MAY MIS-REPORT RAIN FOR SNOW...
$$

 *****  OTHER OBSERVATIONS SOUTHEAST NORTH DAKOTA *****

CITY           SKY/WX    TMP DP  RH WIND       PRES   REMARKS
COOPERSTOWN    FAIR       3  -6  66 N17       30.16S WCI -17
VALLEY CITY    LGT SNOW   3  -2  78 N17       30.14S WCI -17
OAKES            N/A      3   0  85 N23G30    30.07F WCI -19
GWINNER        HAZE       5   1  85 N23G30    30.06F VSB 3/4 WCI -17
SHEYENNE NWR     N/A      5   0  78 N16       29.95S WCI -14
BUFFALO          N/A      4  -4  71 SE17        N/A  WCI -16
WYNDMERE       NOT AVBL
 ***** THE ABOVE OBSERVATIONS ARE NON NWS ARE NOT QUALITY
       CONTROLLED AND MAY MIS-REPORT RAIN FOR SNOW...
$$

  *****  WEATHER ACROSS NORTHERN MINNESOTA  *****

CITY           SKY/WX    TMP DP  RH WIND       PRES   REMARKS
FLAG ISLAND    FAIR       7  -9  47 NE6       30.21F WCI  -3
WARROAD        FAIR       7  -6  56 N7        30.21F WCI  -5
ROSEAU         NOT AVBL
HALLOCK        FAIR       7  -6  56 N9        30.24S WCI  -7
THF RVR FALLS  CLOUDY     6  -4  63 N15       30.17F WCI -12
6HR MIN TEMP:   6; 6HR MAX TEMP:  10;

HALSTAD        NOT AVBL
FOSSTON        FAIR       7  -2  66 N10       30.12S WCI  -8
BAUDETTE       CLOUDY     8  -2  63 N9        30.16F WCI  -5
6HR MIN TEMP:   3; 6HR MAX TEMP:  11;

WASKISH        MOCLDY    10   0  61 NE8       30.14F WCI  -1
CROOKSTON      FAIR       7  -4  61 N13       30.20S WCI  -9
$$
  *****  WEATHER ACROSS CENTRAL AND WEST MINNESOTA  *****

CITY           SKY/WX    TMP DP  RH WIND       PRES   REMARKS
BEMIDJI        MOCLDY    10   1  67 N7        30.09S WCI  -2
6HR MIN TEMP:   8; 6HR MAX TEMP:  12;

PARK RAPIDS    LGT SNOW  11   4  73 NE13G21   30.03F WCI  -4
6HR MIN TEMP:  10; 6HR MAX TEMP:  13; 6HR PCP: TRACE;

WADENA         LGT SNOW  10   7  85 NE14G20   30.01F VSB 1   WCI  -5
DETROIT LAKES  LGT SNOW  12   5  73 NE12      30.05F WCI  -2
MOORHEAD       MIX PCPN   7  -2  66 N21G26    30.13F WCI -13
FERGUS FALLS   LGT SNOW  10   7  85 NE12G18   30.03F WCI  -4
ELBOW LAKE     LGT SNOW  12   8  84 NE18G24   29.99F WCI  -6
6HR MIN TEMP:  12; 6HR MAX TEMP:  14;

MORRIS MN      CLOUDY    12   7  79 N20G25    29.97F WCI  -6
STAPLES        CLOUDY    10   3  72 N12       30.03R WCI  -4
WHEATON        FLURRIES  10   7  85 N16G24    30.05S WCI  -7
$$
  *****  WEATHER ELSEWHERE ACROSS MINNESOTA  *****

CITY           SKY/WX    TMP DP  RH WIND       PRES   REMARKS
DULUTH         LGT SNOW  14   9  80 NE13      30.01S VSB 1   WCI   0
6HR MIN TEMP:  11; 6HR MAX TEMP:  14; 6HR PCP:  0.11;

INTRNTL FALLS  CLOUDY    10  -1  61 N8        30.16R WCI  -2
6HR MIN TEMP:   7; 6HR MAX TEMP:  11;

ELY            MOCLDY     9   1  72 NE9       30.09S WCI  -5
CLOQUET        FLURRIES  14   9  79 NE14      30.01R WCI  -1
BRAINERD       FLURRIES  14   4  64 NE16      30.02S WCI  -2
6HR MIN TEMP:  12; 6HR MAX TEMP:  15; 6HR PCP: TRACE;

HIBBING        LGT SNOW   9   2  73 N9        30.07R WCI  -4
6HR MIN TEMP:   8; 6HR MAX TEMP:  10; 6HR PCP: TRACE;

ALEXANDRIA     CLOUDY    12   6  77 NE16      29.97S HAZE    WCI  -5
6HR MIN TEMP:  12; 6HR MAX TEMP:  15; 6HR PCP: TRACE;

SAINT CLOUD    CLOUDY    16  12  84 N13       29.95S WCI   2
6HR MIN TEMP:  15; 6HR MAX TEMP:  17; 6HR PCP: TRACE;

MINNEAPOLIS    FRZ DRZL  21  20  96 NE14      29.89R FOG     WCI   8
6HR MIN TEMP:  21; 6HR MAX TEMP:  23; 6HR PCP:  0.08;

$$

  *****  WEATHER ACROSS SOUTH DAKOTA  *****

CITY           SKY/WX    TMP DP  RH WIND       PRES   REMARKS
SIOUX FALLS    LGT SNOW  15  11  83 NE20G25   29.87F FOG     WCI  -2
6HR MIN TEMP:  15; 6HR MAX TEMP:  18; 6HR PCP: TRACE;

BROOKINGS      LGT SNOW  10   7  85 NE15G29   29.89S FOG     WCI  -6
WATERTOWN      CLOUDY     7   4  87 N20G30    29.92R FOG     WCI -13
6HR MIN TEMP:   8; 6HR MAX TEMP:  10;

HURON          LGT SNOW  10   6  84 N18G25    29.99R FOG     WCI  -8
6HR MIN TEMP:  10; 6HR MAX TEMP:  12; 6HR PCP: TRACE;

SISSETON         N/A      8   5  87 N24       30.04S WCI -13
ABERDEEN       LGT SNOW   8   3  80 N24G31    30.06R WCI -13
6HR MIN TEMP:   8; 6HR MAX TEMP:  13; 6HR PCP:  0.01;

MITCHELL       LGT SNOW  14   9  80 N16       29.97R WCI  -2
PIERRE         FLURRIES   8   4  83 N18       30.01S WCI -11
6HR MIN TEMP:   8; 6HR MAX TEMP:   9; 6HR PCP: TRACE;

MOBRIDGE       LGT SNOW   7   0  73 N16       30.04F VSB 3/4 WCI -11
RAPID CITY     LGT SNOW   0  -5  79 N14       29.95R VSB 1   WCI -19
6HR MIN TEMP:   0; 6HR MAX TEMP:   2; 6HR PCP:  0.10;

$$

  *****  SOME WEATHER IN NEARBY STATES *****

CITY           SKY/WX    TMP DP  RH WIND       PRES   REMARKS
GLASGOW MT     FAIR      -3  -9  75 NW5       30.12R WCI -13
6HR MIN TEMP:  -3; 6HR MAX TEMP:   1; 6HR PCP:  0.01;

GREAT FALLS MT MOCLDY    -7 -12  79 W5        29.98S WCI -18
6HR MIN TEMP:  -7; 6HR MAX TEMP:   0;

CHEYENNE WY    LGT SNOW   1  -3  83 N9        29.57R VSB 1   WCI -14
6HR MIN TEMP:   1; 6HR MAX TEMP:   6; 6HR PCP:  0.01;

SCOTTSBLUFF NE LGT SNOW   5  -2  72 N8        29.81R WCI  -8
6HR MIN TEMP:   5; 6HR MAX TEMP:   8; 6HR PCP:  0.01;

OMAHA NE       FLURRIES  23  20  88 N10       29.87R WCI  12
6HR MIN TEMP:  22; 6HR MAX TEMP:  25; 6HR PCP: TRACE;

DES MOINES IA  FRZ DRZL  31  29  92 NW12      29.78R FOG     WCI  22
6HR MIN TEMP:  30; 6HR MAX TEMP:  36; 6HR PCP: TRACE;

DAVENPORT IA   LGT RAIN  59  56  89 S12       29.74S FOG
6HR MIN TEMP:  59; 6HR MAX TEMP:  63; 6HR PCP:  0.04;

CHICAGO IL     LGT RAIN  57  54  89 S21G28    29.80R
6HR MIN TEMP:  43; 6HR MAX TEMP:  58; 6HR PCP:  0.05;

EAU CLAIRE WI  CLOUDY    23  22  96 NE13G20   29.84R FOG     WCI  11
6HR MIN TEMP:  23; 6HR MAX TEMP:  24; 6HR PCP:  0.03;

LA CROSSE WI   CLOUDY    37  34  89 NE10      29.76S FOG
6HR MIN TEMP:  36; 6HR MAX TEMP:  39; 6HR PCP:  0.01;

$$

  *****  SOME NATIONAL WEATHER *****

CITY           SKY/WX    TMP DP  RH WIND       PRES   REMA



USA.gov is the U.S. government's official web portal to all federal, state and local government web resources and services.